{"data":{"norad_id":67532,"epoch":"2026-09-19T11:25:06.378528Z","epoch_age_seconds":160789,"freshness":"FRESH","line1":"1 67532U 26014A   26262.47576827  .00005269  00000+0  16542-3 0  9992","line2":"2 67532  97.2846 147.8926 0001779  94.7401 265.4045 15.33443803 38480","mean_motion":15.33443803,"eccentricity":0.0001779,"inclination_deg":97.2846,"raan_deg":147.8926,"arg_perigee_deg":94.7401,"mean_anomaly_deg":265.4045,"bstar":0.00016542,"rev_number":3848,"period_min":93.906277959636,"perigee_km":464.32924457367,"apogee_km":466.7642272469,"semimajor_km":6843.6837359103,"source":"CELESTRAK","updated_at":"2026-09-20T09:00:43.565152Z"}}